Location: Cartignies
(50.0929°N, 3.8447°E)
Time: 13:47:55
(UTC+00:00)

MOS 1 Rocket - Pass Details

Date: 12 January 2026
Orbit: 608 x 815 km, 97.4° (Epoch: 16 February)

Event Time Altitude Azimuth Distance (km) Brightness Sun altitude
Rises 16:59:04 0° 159° (SSE) 3,322 6.8 -8.2°
Reaches altitude 10° 17:01:26 10° 157° (SSE) 2,385 6.1 -8.6°
Maximum altitude 17:06:43 73° 74° (ENE) 828 3.5 -9.3°
Drops below altitude 10° 17:11:50 10° 350° (N) 2,310 5.9 -10.1°
Sets 17:14:06 0° 349° (N) 3,211 6.6 -10.4°
